History for Miami, FL

Wednesday, December 5, 2012 — View Current Conditions

Jump to Data:

Date:
Airport Code:
Recently Viewed Airport Codes: KMIA
Daily Summary
  Actual Average Record
Temperature
Mean Temperature 74°F 72°F  
Max Temperature 79°F 79°F 87°F (1978)
Min Temperature 68°F 65°F 45°F (1957)
Degree Days
Heating Degree Days 0 1  
Month to date heating degree days 0 1  
Since 1 July heating degree days 1 4  
Cooling Degree Days 9 8  
Month to date cooling degree days 46 40  
Year to date cooling degree days 4486 4412  
Growing Degree Days 24 (Base 50)    
Moisture
Dew Point 61°F    
Average Humidity 65    
Maximum Humidity 78    
Minimum Humidity 52    
Precipitation
Precipitation 0.00 in 0.07 in 4.38 in (1964)
Month to date precipitation 0.13 0.36  
Year to date precipitation 86.56 60.22  
Snow
Snow 0.00 in in in ()
Month to date snowfall 0.0  
Since 1 July snowfall 0.0  
Snow Depth 0.00 in    
Sea Level Pressure
Sea Level Pressure 30.09 in    
Wind
Wind Speed 6 mph (East)    
Max Wind Speed 15 mph    
Max Gust Speed 20 mph    
Visibility 10 miles    
Events      
T = Trace of Precipitation, MM = Missing Value Source: NWS Daily Summary

Show full METARS

(help) - Comma Delimited File

Hourly Observations

Time(EST) Temperature Dew Point Humidity Sea Level Pressure Visibility Wind Direction Wind Speed Gust Speed Precipitation Events Conditions
12:53 AM 71.1°F 60.1°F 68% 30.15 in 10.0 miles Calm Calm - N/A   Mostly Cloudy
1:53 AM 70.0°F 61.0°F 73% 30.14 in 10.0 miles Calm Calm - N/A   Mostly Cloudy
2:53 AM 70.0°F 62.1°F 76% 30.13 in 10.0 miles Calm Calm - N/A   Overcast
3:53 AM 70.0°F 62.1°F 76% 30.11 in 10.0 miles Calm Calm - N/A   Mostly Cloudy
4:53 AM 69.1°F 62.1°F 78% 30.11 in 10.0 miles Calm Calm - N/A   Overcast
5:53 AM 69.1°F 63.0°F 81% 30.11 in 10.0 miles Calm Calm - N/A   Mostly Cloudy
6:53 AM 70.0°F 62.1°F 76% 30.12 in 10.0 miles Variable 4.6 mph - N/A   Overcast
7:53 AM 73.9°F 61.0°F 64% 30.14 in 10.0 miles East 8.1 mph - N/A   Mostly Cloudy
9:53 AM 75.9°F 60.1°F 58% 30.16 in 10.0 miles ESE 10.4 mph - N/A   Overcast
10:53 AM 75.9°F 60.1°F 58% 30.14 in 10.0 miles ESE 11.5 mph - N/A   Overcast
11:53 AM 78.1°F 59.0°F 52% 30.12 in 10.0 miles East 10.4 mph 19.6 mph N/A   Mostly Cloudy
12:53 PM 77.0°F 60.1°F 56% 30.09 in 10.0 miles ESE 11.5 mph - N/A   Mostly Cloudy
1:53 PM 78.1°F 61.0°F 56% 30.07 in 10.0 miles ESE 10.4 mph - N/A   Mostly Cloudy
2:53 PM 77.0°F 60.8°F 57% 30.05 in 10.0 miles East 9.2 mph - N/A   Mostly Cloudy
3:53 PM 77.0°F 61.0°F 58% 30.04 in 10.0 miles ESE 4.6 mph - N/A   Mostly Cloudy
4:53 PM 75.9°F 61.0°F 60% 30.04 in 10.0 miles ENE 5.8 mph - N/A   Scattered Clouds
5:53 PM 73.9°F 62.1°F 66% 30.04 in 10.0 miles East 6.9 mph - N/A   Mostly Cloudy
6:53 PM 73.9°F 62.1°F 66% 30.04 in 10.0 miles East 8.1 mph - N/A   Mostly Cloudy
7:53 PM 73.9°F 62.1°F 66% 30.04 in 10.0 miles East 6.9 mph - N/A   Overcast
8:53 PM 73.0°F 62.1°F 68% 30.04 in 10.0 miles East 5.8 mph - N/A   Mostly Cloudy
9:53 PM 73.0°F 62.1°F 68% 30.04 in 10.0 miles East 3.5 mph - N/A   Overcast
10:53 PM 72.0°F 62.1°F 71% 30.04 in 10.0 miles Calm Calm - N/A   Mostly Cloudy
11:53 PM 72.0°F 63.0°F 73% 30.03 in 10.0 miles NNW 3.5 mph - N/A   Mostly Cloudy